K9WAE Weather Reports


Display with metric or nautical units.
time (UTC)temp
F
wind
direction
speed
MPH
gust
MPH
rain 1hr
in
rain 24hr
in
rain mn
in
humidity
%
barometer
mb
20260503200903 62 231 0.0 12.0 0.00 0.00 0.00 38 1016.7
20260503200003 62 240 0.0 4.0 0.00 0.00 0.00 42 1016.5
20260503195403 62 240 0.0 4.0 0.00 0.00 0.00 38 1016.9
20260503194504 62 0 0.0 0.0 0.00 0.00 0.00 38 1017.4
20260503193817 62 0 0.0 0.0 0.00 0.00 0.00 37 1017.5
20260503192703 61 0 0.0 0.0 0.00 0.00 0.00 39 1017.8
20260503191803 62 0 0.0 0.0 0.00 0.00 0.00 38 1017.9
20260503191114 62 0 0.0 0.0 0.00 0.00 0.00 37 1017.8
20260503190003 61 0 0.0 0.0 0.00 0.00 0.00 40 1018.2
20260503185403 60 0 0.0 0.0 0.00 0.00 0.00 43 1018.4
20260503184715 60 250 0.0 11.0 0.00 0.00 0.00 40 1018.4
20260503183603 60 0 0.0 0.0 0.00 0.00 0.00 39 1018.7
20260503182703 60 0 0.0 0.0 0.00 0.00 0.00 45 1018.6
20260503181803 60 179 1.0 13.0 0.00 0.00 0.00 44 1018.6
20260503180903 60 176 0.0 13.0 0.00 0.00 0.00 45 1018.7
20260503180004 60 0 0.0 0.0 0.00 0.00 0.00 39 1018.9
20260503175403 60 0 0.0 0.0 0.00 0.00 0.00 42 1019.0
20260503174503 59 0 0.0 0.0 0.00 0.00 0.00 44 1019.1
20260503173603 60 0 0.0 0.0 0.00 0.00 0.00 41 1019.5
20260503172703 59 0 0.0 0.0 0.00 0.00 0.00 41 1019.4
20260503171804 59 0 0.0 0.0 0.00 0.00 0.00 40 1019.7
20260503171116 59 0 0.0 0.0 0.00 0.00 0.00 39 1019.8
20260503170213 58 0 0.0 0.0 0.00 0.00 0.00 40 1019.9
20260503150214 56 0 0.0 0.0 0.00 0.00 0.00 46 1021.2
20260503131113 49 232 0.0 7.0 0.00 0.00 0.00 63 1021.2
20260503100217 37 0 0.0 0.0 0.00 0.00 0.00 79 1020.0
20260503081116 32 0 0.0 0.0 0.00 0.00 0.00 91 1019.8
20260503072703 32 0 0.0 0.0 0.00 0.00 0.00 90 1019.5
20260503071803 32 0 0.0 0.0 0.00 0.00 0.00 90 1019.5
20260503070904 32 0 0.0 0.0 0.00 0.00 0.00 90 1019.5
20260503054503 33 0 0.0 0.0 0.00 0.00 0.00 88 1020.0
20260503053603 33 0 0.0 0.0 0.00 0.00 0.00 88 1019.9
20260503052703 33 0 0.0 0.0 0.00 0.00 0.00 87 1020.0
20260503051803 33 0 0.0 0.0 0.00 0.00 0.00 86 1020.0
20260503050903 34 0 0.0 0.0 0.00 0.00 0.00 87 1020.1
20260503050003 34 0 0.0 0.0 0.00 0.00 0.00 86 1020.0
20260503045403 34 0 0.0 0.0 0.00 0.00 0.00 86 1020.1
20260503044503 34 0 0.0 0.0 0.00 0.00 0.00 86 1020.0
20260503043603 35 0 0.0 0.0 0.00 0.00 0.00 85 1020.0
20260503042914 34 0 0.0 0.0 0.00 0.00 0.00 85 1020.0
20260503042016 35 0 0.0 0.0 0.00 0.00 0.00 83 1019.9
20260503041114 35 0 0.0 0.0 0.00 0.00 0.00 82 1020.0
20260503040004 36 0 0.0 0.0 0.00 0.00 0.00 80 1019.9
20260503035613 36 0 0.0 0.0 0.00 0.00 0.00 80 1019.9
20260503034715 36 0 0.0 0.0 0.00 0.00 0.00 81 1019.9
20260503033603 36 0 0.0 0.0 0.00 0.00 0.00 79 1019.9
20260503032703 37 0 0.0 0.0 0.00 0.00 0.00 77 1019.9
20260503032017 38 0 0.0 0.0 0.00 0.00 0.00 77 1020.0
20260503030903 38 0 0.0 0.0 0.00 0.00 0.00 76 1019.8
20260503030004 39 0 0.0 0.0 0.00 0.00 0.00 73 1019.9
20260503025403 40 0 0.0 0.0 0.00 0.00 0.00 73 1019.8
20260503024503 41 0 0.0 0.0 0.00 0.00 0.00 71 1019.7
20260503023603 42 0 0.0 0.0 0.00 0.00 0.00 67 1019.7
20260503022703 42 0 0.0 0.0 0.00 0.00 0.00 66 1019.6
20260503021803 43 0 0.0 0.0 0.00 0.00 0.00 66 1019.5
20260503021115 44 0 0.0 0.0 0.00 0.00 0.00 64 1019.4
20260503020003 44 0 0.0 0.0 0.00 0.00 0.00 63 1019.2
20260503015403 45 0 0.0 0.0 0.00 0.00 0.00 63 1019.2
20260503014503 45 0 0.0 0.0 0.00 0.00 0.00 62 1019.1
20260503013814 46 0 0.0 0.0 0.00 0.00 0.00 62 1018.9
20260503012703 46 0 0.0 0.0 0.00 0.00 0.00 62 1018.7
20260503011803 46 0 0.0 0.0 0.00 0.00 0.00 61 1018.6
20260503010903 47 0 0.0 0.0 0.00 0.00 0.00 61 1018.4
20260503010004 47 0 0.0 0.0 0.00 0.00 0.00 59 1018.5
20260503005614 48 0 0.0 0.0 0.00 0.00 0.00 57 1018.5
20260503004717 48 0 0.0 0.0 0.00 0.00 0.00 54 1018.2
20260503003603 49 0 0.0 0.0 0.00 0.00 0.00 51 1018.1
20260503002916 50 0 0.0 0.0 0.00 0.00 0.00 50 1018.1
20260503002014 51 0 0.0 0.0 0.00 0.00 0.00 48 1017.9
20260503000903 51 0 0.0 0.0 0.00 0.00 0.00 46 1017.7
20260503000003 52 322 0.0 3.0 0.00 0.00 0.00 45 1017.6
20260502235615 52 322 0.0 3.0 0.00 0.00 0.00 45 1017.6
20260502234503 52 325 1.0 7.0 0.00 0.00 0.00 44 1017.5
20260502233603 53 0 0.0 0.0 0.00 0.00 0.00 44 1017.3
20260502232704 53 0 0.0 0.0 0.00 0.00 0.00 45 1017.4
20260502231803 53 0 0.0 0.0 0.00 0.00 0.00 47 1017.4
20260502231117 52 0 0.0 0.0 0.00 0.00 0.00 49 1017.4
20260502230003 53 0 0.0 0.0 0.00 0.00 0.00 47 1017.4
20260502225403 54 0 0.0 0.0 0.00 0.00 0.00 45 1017.4
20260502224503 54 0 0.0 0.0 0.00 0.00 0.00 52 1017.3
20260502223604 53 0 0.0 0.0 0.00 0.00 0.00 51 1017.3
20260502222913 53 0 0.0 0.0 0.00 0.00 0.00 51 1017.4
20260502221803 53 0 0.0 0.0 0.00 0.00 0.00 51 1017.2
20260502220903 53 0 0.0 0.0 0.00 0.00 0.00 51 1017.3
20260502220003 53 0 0.0 0.0 0.00 0.00 0.00 53 1017.3
20260502215616 53 0 0.0 0.0 0.00 0.00 0.00 51 1017.3
20260502214503 53 0 0.0 0.0 0.00 0.00 0.00 50 1017.2
20260502213603 53 0 0.0 0.0 0.00 0.00 0.00 51 1017.2
20260502212703 53 0 0.0 0.0 0.00 0.00 0.00 51 1017.2
20260502211803 53 0 0.0 0.0 0.00 0.00 0.00 53 1017.2
20260502210903 53 0 0.0 0.0 0.00 0.00 0.00 51 1017.2
20260502210003 53 0 0.0 0.0 0.00 0.00 0.00 53 1017.2
20260502205403 53 0 0.0 0.0 0.00 0.00 0.00 52 1017.3
20260502204714 53 0 0.0 0.0 0.00 0.00 0.00 51 1017.3
20260502203817 53 0 0.0 0.0 0.00 0.00 0.00 57 1017.4
20260502202704 52 0 0.0 0.0 0.00 0.00 0.00 55 1017.4
20260502201803 52 0 0.0 0.0 0.00 0.00 0.00 54 1017.6